www.pogodaiklimat.ru

Погода и климат >> Архив погоды >> Россия >> Сахалинская область >> Александровск-Сахалинский


АРХИВ ПОГОДЫ в Александровске-Сахалинском

Время (UTC), дата Ветер
(напр.,м/с)
 
Видим.   Явления Облачность Т
(С)
Тd
(С)
f
(%)
Тe
(С)
Тes
(С)
Комфортность P
(гПа)
Po
(гПа)
Тmin
(С)
Tmax
(С)
R
(мм)
R24
(мм)
S
(см)
18 19.05 ЮВ 1-2
{8}
20 км 10/3 600 м
[Cb cap Ac trans Ci sp]
+9.8 +7.3 84 +9 +9 тепло 1009.2 1005.4
21 19.05 С 1-2
{4}
20 км 10/8 600 м
[Cb cap Ac trans Ci sp]
+8.0 +5.8 86 +7 +7 тепло 1008.1 1004.3 +6.9
00 20.05 С 3-4
{5}
20 км 10/10 600 м
[Cb cap]
+9.5 +7.0 84 +7 +7 по сезону 1007.5 1003.7
03 20.05 З 3-7
{7}
20 км 10/8 600 м
[Cb cap As op]
+13.9 +8.7 71 +13 +13 тепло 1005.8 1002.1
06 20.05 Ю 3-7
{10}
2400 м слаб. ливневой дождь 10/10 600 м
[Cb cap]
+12.7 +11.7 94 +11 +11 тепло 1004.8 1001.1
09 20.05 Ю 6-11
{13}
10 км слаб. ливневой дождь 10/8 600 м
[Cb cap Ac trans]
+14.1 +11.2 83 +12 +12 тепло 1004.0 1000.3 +14.1 5
12 20.05 ЮВ 7-12
{12}
20 км {ливн. осадки} 10/10 600 м
[Cb cap]
+14.3 +11.2 82 +12 +12 тепло 1003.4 999.7
15 20.05 Ю 7-13
{14}
20 км 10/10 600 м
[Cb cap]
+15.9 +10.5 70 +14 +14 тепло 1002.6 998.9
18 20.05 ЮВ 6-10
{15}
20 км {ливн. осадки} 10/10 600 м
[Cb cap]
+14.5 +10.5 77 +13 +13 тепло 1002.2 998.5
21 20.05 ЮВ 4-7
{11}
10 км слаб. ливневой дождь 10/10 600 м
[Cb cap]
+14.5 +10.7 78 +13 +13 тепло 1001.6 997.9 +13.2 0.0
00 21.05 ЮЗ 2-3
{8}
20 км {ливн. осадки} 10/10 600 м
[Cb cap]
+14.9 +11.2 79 +15 +15 тепло 1000.8 997.1
03 21.05 Ю 2-4
{9}
20 км 10/10 600 м
[Cb cap]
+15.9 +11.2 74 +16 +16 тепло 999.8 996.1
06 21.05 СВ 2-4
{5}
20 км слаб. ливневой дождь 10/10 600 м
[Cb cap]
+12.5 +11.4 93 +11 +11 тепло 999.1 995.4
09 21.05 ЮЗ 1-2
{4}
20 км слаб. ливневой дождь 10/10 600 м
[Cb cap]
+13.5 +11.7 89 +14 +14 тепло 997.7 994.0 +16.6 3
12 21.05 ЮВ 3-5
{8}
20 км {ливн. осадки} 10/10 600 м
[Cb cap]
+13.1 +10.0 81 +12 +12 тепло 997.0 993.3
15 21.05 ЮВ 2-4
{8}
20 км в посл. час ливневой дождь 10/10 600 м
[Cb cap]
+11.0 +10.6 97 +10 +10 тепло 996.7 992.9
18 21.05 Ю 1-4
{5}
20 км {ливн. осадки} 10/10 600 м
[Cb cap]
+10.8 +10.3 97 +10 +10 тепло 996.5 992.8
21 21.05 ЮЗ 3-5
{8}
20 км 9/9 300 м
[Cb cap]
+11.3 +9.0 86 +9 +10 тепло 997.3 993.5 +9.9 0.7
00 22.05 ЮЗ 7-11
{14}
20 км 8/8 300 м
[Cb cap]
+8.4 +6.0 85 +4 +5 по сезону 999.1 995.3 +8.1
03 22.05 ЮЗ 8-15
{15}
20 км 3/3 300 м
[St]
+11.7 +7.4 75 +8 +10 по сезону 998.3 994.6
06 22.05 ЮЗ 9-15
{15}
20 км 1/1 600 м
[Cu med, cong]
+12.2 +7.2 71 +9 +10 по сезону 998.7 995.0
09 22.05 ЮЗ 3-6
{15}
20 км ясно +12.9 +7.5 70 +12 +12 тепло 999.9 996.2 +13.8
12 22.05 СЗ 1-2
{7}
20 км 3/0
[Ci sp]
+10.3 +7.4 82 +10 +10 тепло 1000.8 997.0
15 22.05 ЮВ 2-4
{9}
20 км 3/0
[Ci sp]
+7.3 +6.5 95 +5 +5 по сезону 1000.9 997.1
18 22.05 З 1-2
{5}
20 км 6/0
[Ci sp]
+9.9 +7.0 82 +9 +9 тепло 999.5 995.7
21 22.05 Ю 3-7
{7}
20 км слаб. ливневой дождь 10/10 300 м
[Cb cap]
+11.2 +9.6 90 +9 +9 тепло 1000.0 996.2 +7.2 0.0
00 23.05 Ю 6-12
{14}
20 км {ливн. осадки} 8/8 300 м
[Cb cap]
+12.1 +8.1 77 +9 +10 тепло 1000.4 996.7
03 23.05 ЮЗ 6-9
{13}
20 км 9/8 600 м
[Cb cap Ac trans]
+10.9 +7.2 78 +8 +9 по сезону 1001.5 997.8
06 23.05 ЮЗ 4-8
{9}
20 км 4/1 600 м
[Cb cap Ac trans]
+14.4 +7.9 65 +13 +18 тепло 1000.9 997.2
09 23.05 ЮЗ 3-6
{8}
20 км 3/3 200 м
[Cb cap Ac trans]
+9.3 +6.8 84 +7 +8 по сезону 1001.5 997.8 +14.4 0.0
12 23.05 З 1-2
{6}
20 км 8/8 600 м
[Cb cap]
+9.9 +6.5 79 +10 +10 тепло 1002.5 998.7
15 23.05 С 5-7
{7}
20 км 8/8 600 м
[Sc]
+5.9 +5.5 97 +1 +1 по сезону 1002.5 998.7
18 23.05 ЮЗ 2-3
{7}
20 км 9/4 200 м
[St Ac lent Ci fib]
+6.1 +5.6 97 +3 +3 по сезону 1002.5 998.7
21 23.05 СЗ 1-1
{7}
20 км в посл. час ливневой дождь 8/4 200 м
[Cb cap Ac cast Ci fib]
+7.4 +6.5 94 +6 +8 по сезону 1003.2 999.4 +5.8 0.7
00 24.05 ЮЗ 5-8
{9}
20 км {ливн. осадки} 4/4 200 м
[Cu med, cong]
+10.1 +6.6 79 +7 +11 по сезону 1003.9 1000.1
03 24.05 ЮЗ 5-9
{12}
50 км 5/3 600 м
[Cu hum Ac trans]
+13.2 +7.3 67 +11 +16 тепло 1003.0 999.3
06 24.05 ЮЗ 6-10
{11}
50 км 4/1 600 м
[Cu med, cong Ci sp]
+12.5 +6.8 68 +10 +13 по сезону 1002.4 998.6
09 24.05 С 3-4
{9}
20 км 6/0
[Ac trans Ci sp]
+9.4 +6.4 82 +7 +8 по сезону 1002.4 998.6 +15.5
12 24.05 ЮВ 1-1
{6}
20 км 8/4 600 м
[Sc Ac trans]
+7.6 +6.3 91 +7 +7 по сезону 1003.0 999.2
15 24.05 С 3-6
{7}
20 км 8/4 600 м
[Sc Ac trans]
+8.5 +5.4 81 +6 +6 по сезону 1002.3 998.5
18 24.05 С 1-1
{6}
20 км 9/3 600 м
[Sc Ac trans]
+7.2 +6.1 93 +6 +6 тепло 1001.9 998.1
21 24.05 В 1-2
{5}
20 км 9/3 600 м
[Sc Ac trans Ci sp]
+10.6 +7.8 83 +10 +12 тепло 1001.0 997.3 +6.1
00 25.05 ЮЗ 7-11
{11}
20 км в посл. час ливневой дождь 10/8 600 м
[Cb cap Ac lent Ci sp]
+11.1 +7.0 76 +8 +8 по сезону 1000.3 996.6
03 25.05 Ю 4-7
{15}
20 км 10/10 600 м
[Cb cap]
+13.5 +8.0 69 +12 +12 тепло 999.8 996.0
06 25.05 ЮЗ 8-12
{15}
20 км 9/0
[Ac trans Ci sp]
+13.0 +7.8 71 +10 +11 по сезону 999.3 995.6
09 25.05 ЮЗ 1-4
{12}
20 км 3/0
[Ci sp]
+13.3 +8.4 72 +14 +15 тепло 999.2 995.5 +17.5 0.0
12 25.05 Ю 3-7
{18}
20 км гроза, ливневой дождь 10/10 600 м
[Cb cap]
+8.5 +7.5 93 +6 +6 по сезону 1001.3 997.5
15 25.05 СВ 4-6
{16}
20 км гроза без осадков {ливн. осадки} 10/10 600 м
[Cb cap]
+8.3 +7.7 96 +5 +5 по сезону 1002.1 998.3
18 25.05 Ю 4-8
{10}
10 км слаб. ливневой дождь {гроза} 10/10 600 м
[Cb cap]
+7.6 +7.4 99 +4 +4 по сезону 1004.6 1000.7
21 25.05 З 2-4
{9}
<100 м туман {ливн. осадки} ?/? +5.6 +5.5 99 +3 +3 по сезону 1006.5 1002.7 +5.6 2
00 26.05 С 2-3
{4}
10 км слаб. ливневой дождь {морось} 9/9 300 м
[Cb cap]
+5.9 +5.8 99 +3 +5 прохладно 1010.0 1006.1 +5.6
03 26.05 С 2-4
{5}
20 км 10/6 300 м
[St Ac As]
+7.0 +6.0 93 +5 +7 по сезону 1011.4 1007.5
06 26.05 С 4-5
{5}
20 км 10/4 600 м
[Cb cap Ac cast Cc]
+7.9 +5.4 84 +5 +6 прохладно 1012.7 1008.9
09 26.05 В 2-3
{5}
20 км 10/8 600 м
[Cb cap Ac lent Ci sp]
+10.0 +6.7 80 +9 +9 по сезону 1013.1 1009.3 +10.1 0.6
12 26.05 Ю 1-1
{3}
20 км 10/4 600 м
[Cb cap Ac trans]
+8.2 +7.5 95 +7 +7 по сезону 1013.9 1010.1
15 26.05 В 2-2
{4}
20 км 10/3 600 м
[Cb cap Ac trans]
+5.8 +5.2 96 +3 +3 по сезону 1013.0 1009.2

 

Местоположение метеостанции Александровск-Сахалинский (Сахалинская область, Россия): широта 50.90 долгота 142.10 высота над уровнем моря 31 м.

В архиве по умолчанию представлена погода в Александровске-Сахалинском за последнюю неделю. Архивные данные за месяц целиком и за предыдущие месяцы, начиная с января 2011 года, Вы можете получить, выбрав интересующий диапазон дат из раскрывающегося списка и нажав кнопку "Ввод!".


*Определитесь, кто Вы:
робот инопланетянин человек

Внимание! Время в таблицах - всемирное. Для получения местного времени необходимо прибавить поправку, которая равна 11 ч.

Смотрите также архив погоды в соседних городах и на ближайших метеорологических станциях:

Погода в Тымовском (Сахалинская область, Россия) (46 км)
Погода в Оноре (Сахалинская область, Россия) (80 км)
Погода в Ныше (Сахалинская область, Россия) (82 км)
Погода в Пильво (Сахалинская область, Россия) (95 км)
Погода в Комрво (Сахалинская область, Россия) (101 км)
Погода в Пограничном (Сахалинская область, Россия) (126 км)
Погода в Первомайском (Сахалинская область, Россия) (130 км)
Погода в Ногликах (Сахалинская область, Россия) (133 км)
Погода в Погибях (Сахалинская область, Россия) (151 км)
Погода в Мариинском (Хабаровский край, Россия) (167 км)

Пояснения к столбцам:

Ветер - указаны скорость ветра в м/с - средняя за 10 мин, порывы в срок и между сроками (в фигурных скобках) и направление, откуда дует ветер: С - северный, СВ - северо-восточный, В - восточный, ЮВ - юго-восточный, Ю - южный, ЮЗ - юго-западный, З - западный, СЗ - северо-западный.
Видимость - горизонтальная дальность видимости в метрах или километрах. При видимости от 1 до 10 км при отсутствии осадков обычно наблюдается дымка, при ухудшении видимости до 1 км и менее - туман. В сухую погоду видимость может ухудшаться дымом, пылью или мглою.
Явления - указаны атмосферные явления, наблюдавшиеся в срок или в последний час перед сроком; фигурными скобками обозначены явления, наблюдавшиеся между сроками (за 1-3 часа до срока); квадратными скобками обозначены град или гололедные отложения с указанием их диаметра в мм.
Облачность - указаны через наклонную черту общая и нижняя облачность в баллах и высота нижней границы облаков в метрах; квадратными скобками обозначены формы облаков: Ci - перистые, Cs - перисто-слоистые, Cc - перисто-кучевые, Ac - высококучевые, As - высокослоистые, Sc - слоисто-кучевые, Ns - слоисто-дождевые, Cu - кучевые, Cb - кучево-дождевые. Подробнее классификацию облаков см. в Атласе облаков (PDF).
T - Температура воздуха - температура, измеренная на высоте 2 м над землей.
Td - Температура точки росы - температура, при понижении до которой содержащийся в воздухе водяной пар достигнет насыщения.
f - Относительная влажность воздуха - влажноcть воздуха, измеренная на высоте 2 м над землей.
Te - Эффективная температура - температура, которую ощущает одетый по сезону человек в тени. Характеристика душности погоды. При расчете учитывается влияние влажности воздуха и скорости ветра на теплоощущения человека.
Tes - Эффективная температура на солнце - температура, которую ощущает человек, с поправкой на солнечный нагрев. Характеристика знойности погоды. Зависит от высоты солнца над горизонтом, облачности и скорости ветра. Ночью, в пасмурную погоду, а также при ветре 12 м/с и более поправка равна нулю.
P - Атмосферное давление - приведенное к уровню моря атмосферное давление.
Po - Атмосферное давление - измеренное на уровне метеостанции атмосферное давление.
Tmin - Минимальная температура - минимум температуры воздуха на высоте 2 м над землей.
Tmax - Максимальная температура - максимум температуры воздуха на высоте 2 м над землей.
R - Количество осадков - Количество выпавших осадков за период времени, мм. При наведении курсора мыши на число - период времени, за который выпало указанное количество осадков.
R24 - Количество осадков - Количество выпавших осадков за 24 часа, мм.
S - Снежный покров - Высота снежного покрова, см. При наведении курсора мыши на число - состояние снежного покрова и степень покрытия местности в баллах.